Akron Canton, OH

11:57 PM EST on November 18, 2017 (GMT -0500)
Akron-Canton Regional

Weather History for KCAK - May, 2013

Change the Weather History Date:

Saturday, May 25, 2013

  Actual Average Record
Temperature  
Mean Temperature 45 °F 62 °F  
Max Temperature 61 °F 72 °F 88 °F (1914)
Min Temperature 29 °F 51 °F 29 °F (2013)
Degree Days  
Heating Degree Days 20 5  
Month to date heating degree days 129 199  
Since 1 July heating degree days 5774 6075  
Cooling Degree Days 0 2  
Month to date cooling degree days 58 23  
Year to date cooling degree days 65 29  
Moisture  
Dew Point 32 °F    
Average Humidity 66    
Maximum Humidity 100    
Minimum Humidity 32    
Precipitation  
Precipitation 0.00 in 0.14 in 2.62 in (2011)
Month to date precipitation 0.92 3.42  
Year to date precipitation 11.66 14.87  
Snow  
Snow 0.00 in 0.00 in - ()
Month to date snowfall 0.0 0.1  
Since 1 July snowfall 47.2 47.5  
Snow Depth 0.00 in    
Sea Level Pressure  
Sea Level Pressure 30.33 in    
Wind  
Wind Speed 8 mph (NW)    
Max Wind Speed 18 mph    
Max Gust Speed 25 mph    
Visibility 8 miles    
Events Fog    
T = Trace of Precipitation, MM = Missing Value Source: NWS Daily Summary

Daily Weather History Graph

Daily Weather History Graph

Search for Another Location

Airport or City:

Trip Planner

Search our weather history database for the weather conditions in past years. The results will help you decide how hot, cold, wet, or windy it might be!

Date:

Astronomy

May. 25, 2013 Rise Set
Actual Time 5:59 AM EDT 8:46 PM EDT
Civil Twilight 5:27 AM EDT 9:18 PM EDT
Nautical Twilight 4:47 AM EDT 9:58 PM EDT
Astronomical Twilight 4:01 AM EDT 10:45 PM EDT
Moon 9:32 PM EDT (5/25) 6:25 AM EDT (5/25)
Length of Visible Light 15h 50m
Length of Day
14h 46m
Full, 100% of the Moon is Illuminated
May 25
Full
May 31
Last Quarter
Jun 8
New
Jun 16
First Quarter
Jun 23
Full

Hourly Weather History & Observations

Time (EDT) Temp. Windchill Dew Point Humidity Pressure Visibility Wind Dir Wind Speed Gust Speed Precip Events Conditions
12:51 AM 34.0 °F 28.0 °F 30.9 °F 89% 30.33 in 10.0 mi WNW 6.9 mph - N/A   Clear
1:51 AM 35.1 °F 30.1 °F 32.0 °F 89% 30.33 in 7.0 mi West 5.8 mph - N/A   Clear
2:51 AM 30.9 °F 26.2 °F 28.9 °F 92% 30.34 in 7.0 mi NNW 4.6 mph - N/A   Clear
3:51 AM 34.0 °F - 30.9 °F 89% 30.33 in 6.0 mi Calm Calm - N/A   Clear
4:51 AM 32.0 °F 27.5 °F 30.0 °F 92% 30.34 in 4.0 mi NW 4.6 mph - N/A Fog Patches of Fog
5:51 AM 32.0 °F 27.5 °F 30.0 °F 92% 30.35 in 2.0 mi West 4.6 mph - N/A Fog Light Freezing Fog
6:04 AM 30.2 °F 26.7 °F 28.4 °F 93% 30.33 in 0.2 mi West 3.5 mph - N/A Fog Light Freezing Fog
6:51 AM 30.9 °F 27.5 °F 30.9 °F 100% 30.36 in 0.5 mi WNW 3.5 mph - N/A Fog Fog
6:56 AM 32.0 °F - 30.2 °F 93% 30.33 in 0.2 mi Calm Calm - N/A Fog Fog
7:43 AM 37.4 °F - 35.6 °F 93% 30.32 in 4.0 mi Calm Calm - N/A Fog Fog
7:51 AM 39.0 °F - 37.0 °F 93% 30.34 in 4.0 mi Calm Calm - N/A Fog Fog
8:51 AM 45.0 °F 40.6 °F 37.9 °F 76% 30.36 in 7.0 mi NNW 8.1 mph - N/A   Scattered Clouds
9:51 AM 50.0 °F - 36.0 °F 59% 30.37 in 10.0 mi NNW 10.4 mph - N/A   Scattered Clouds
10:51 AM 53.1 °F - 34.0 °F 48% 30.37 in 10.0 mi North 11.5 mph - N/A   Partly Cloudy
11:51 AM 55.0 °F - 35.1 °F 47% 30.36 in 10.0 mi NNW 10.4 mph - N/A   Scattered Clouds
12:51 PM 57.0 °F - 33.1 °F 40% 30.35 in 10.0 mi NNW 10.4 mph 20.7 mph N/A   Scattered Clouds
1:51 PM 60.1 °F - 33.1 °F 36% 30.33 in 10.0 mi North 9.2 mph 19.6 mph N/A   Scattered Clouds
2:51 PM 61.0 °F - 32.0 °F 34% 30.32 in 10.0 mi NW 12.7 mph 23.0 mph N/A   Scattered Clouds
3:51 PM 60.1 °F - 30.0 °F 32% 30.32 in 10.0 mi North 13.8 mph 21.9 mph N/A   Scattered Clouds
4:51 PM 60.1 °F - 32.0 °F 35% 30.30 in 10.0 mi NW 17.3 mph - N/A   Scattered Clouds
5:51 PM 59.0 °F - 32.0 °F 36% 30.30 in 10.0 mi North 12.7 mph - N/A   Scattered Clouds
6:51 PM 57.0 °F - 32.0 °F 39% 30.29 in 10.0 mi North 10.4 mph - N/A   Scattered Clouds
7:51 PM 55.9 °F - 30.9 °F 39% 30.29 in 10.0 mi North 11.5 mph - N/A   Scattered Clouds
8:51 PM 51.1 °F - 30.9 °F 46% 30.29 in 10.0 mi North 8.1 mph - N/A   Scattered Clouds
9:51 PM 48.0 °F - 30.9 °F 52% 30.29 in 10.0 mi North 5.8 mph - N/A   Mostly Cloudy
10:51 PM 46.0 °F 43.9 °F 30.9 °F 56% 30.29 in 10.0 mi NNW 4.6 mph - N/A   Mostly Cloudy
11:51 PM 42.1 °F 39.2 °F 32.0 °F 67% 30.30 in 10.0 mi WNW 4.6 mph - N/A   Mostly Cloudy